KB2KRJ Weather Reports


time (UTC)temp
F
wind
direction
speed
knots
gust
knots
rain 1hr
in
rain 24hr
in
rain mn
in
humidity
%
barometer
mb
20260504050018 42 222 0.0 0.0 0.00 0.00 0.00 67 1012.0
20260504044519 42 222 0.0 0.0 0.00 0.00 0.00 67 1012.1
20260504043027 42 222 0.0 0.0 0.00 0.00 0.00 68 1012.3
20260504041512 42 222 0.0 0.0 0.00 0.00 0.00 68 1012.3
20260504040012 42 222 0.0 0.0 0.00 0.00 0.00 68 1012.2
20260504034509 41 222 0.0 0.0 0.00 0.00 0.00 69 1012.1
20260504033009 41 222 0.0 0.0 0.00 0.00 0.00 69 1012.1
20260504031509 41 222 0.0 0.0 0.00 0.00 0.00 70 1012.1
20260504030015 41 222 0.0 0.0 0.00 0.00 0.00 70 1012.0
20260504024510 42 222 0.0 0.0 0.00 0.00 0.00 70 1011.9
20260504023007 43 222 0.0 0.0 0.00 0.00 0.00 68 1011.9
20260504021506 44 222 0.0 0.0 0.00 0.00 0.00 67 1011.9
20260504020008 44 222 0.0 0.0 0.00 0.00 0.00 66 1011.9
20260504014508 44 222 0.0 0.0 0.00 0.00 0.00 65 1012.0
20260504013014 45 222 0.0 0.0 0.00 0.00 0.00 63 1011.9
20260504011503 46 222 0.0 0.0 0.00 0.00 0.00 60 1011.7
20260504010002 48 222 0.0 0.0 0.00 0.00 0.00 58 1011.3
20260504004503 49 222 0.0 0.0 0.00 0.00 0.00 55 1011.2
20260504003005 51 222 0.0 3.5 0.00 0.00 0.00 50 1011.2
20260504001502 51 182 0.0 2.6 0.00 0.00 0.00 48 1010.9
20260504000000 52 176 0.0 2.6 0.00 0.00 0.00 46 1010.9
20260503234502 52 178 0.0 0.9 0.00 0.00 0.00 46 1010.7
20260503233107 53 178 0.0 2.6 0.00 0.00 0.00 43 1010.5
20260503231600 53 199 0.0 4.3 0.00 0.00 0.00 42 1010.4
20260503230116 53 163 1.7 6.1 0.00 0.00 0.00 40 1010.2
20260503224606 54 209 0.9 4.3 0.00 0.00 0.00 37 1010.1
20260503223057 54 215 0.0 5.2 0.00 0.00 0.00 37 1010.0
20260503221604 54 221 0.0 7.0 0.00 0.00 0.00 35 1009.9
20260503220057 54 243 0.9 7.8 0.00 0.00 0.00 33 1009.8
20260503214600 55 210 2.6 8.7 0.00 0.00 0.00 30 1009.8
20260503213056 56 196 3.5 8.7 0.00 0.00 0.00 30 1009.8
20260503211556 55 215 0.9 6.1 0.00 0.00 0.00 30 1009.8
20260503210054 55 207 2.6 6.1 0.00 0.00 0.00 31 1009.6
20260503204552 55 207 2.6 6.1 0.00 0.00 0.00 32 1009.9
20260503203105 56 208 2.6 6.1 0.00 0.00 0.00 33 1010.0
20260503201550 54 211 1.7 7.0 0.00 0.00 0.00 34 1010.0
20260503200048 55 182 1.7 7.0 0.00 0.00 0.00 34 1010.1
20260503194547 56 221 3.5 8.7 0.00 0.00 0.00 35 1010.3
20260503193043 55 50 1.7 9.6 0.00 0.00 0.00 35 1010.6
20260503191546 54 197 1.7 6.1 0.00 0.00 0.00 37 1010.8
20260503190042 53 200 0.9 6.1 0.00 0.00 0.00 37 1010.8
20260503184536 53 190 2.6 6.1 0.00 0.00 0.00 39 1011.3
20260503183033 52 191 1.7 8.7 0.00 0.00 0.00 41 1011.3
20260503181530 50 52 1.7 7.0 0.00 0.00 0.00 40 1011.4
20260503180034 49 207 1.7 7.8 0.00 0.00 0.00 46 1011.5
20260503174528 48 193 3.5 7.8 0.00 0.00 0.00 44 1011.6
20260503173028 48 248 1.7 6.1 0.00 0.00 0.00 43 1011.8
20260503171527 48 216 0.9 6.1 0.00 0.00 0.00 44 1011.7
20260503081536 37 87 0.0 2.6 0.00 0.01 0.00 69 1012.1
20260503071529 37 64 0.0 3.5 0.00 0.01 0.00 70 1012.2